This is the latest recevied weather packets stored in our database for station/object AI4QX-5. If no packets are shown the sender has not sent any weather packets the latest 10 day(s).
| Time | Temp. | Humidity | Pressure | Rain* | Wind** | Luminosity | Snow |
|---|---|---|---|---|---|---|---|
| 1777252200 | 25.56° C | 45% | 1010.1 hPa | 0 mm | - | - | - |
| 1777251600 | 26.11° C | 43% | 1009.9 hPa | 0 mm | - | - | - |
| 1777251000 | 25.56° C | 43% | 1009.9 hPa | 0 mm | - | - | - |
| 1777250400 | 25.56° C | 45% | 1009.7 hPa | 0 mm | - | - | - |
| 1777249800 | 26.11° C | 43% | 1009.7 hPa | 0 mm | - | - | - |
| 1777249200 | 26.11° C | 44% | 1009.3 hPa | 0 mm | - | - | - |
| 1777248600 | 25.56° C | 42% | 1009.2 hPa | 0 mm | - | - | - |
| 1777248000 | 26.11° C | 44% | 1009.1 hPa | 0 mm | - | - | - |
| 1777247400 | 25.56° C | 42% | 1008.9 hPa | 0 mm | - | - | - |
| 1777246800 | 26.11° C | 44% | 1008.9 hPa | 0 mm | - | - | - |
| 1777246200 | 25.56° C | 43% | 1008.7 hPa | 0 mm | - | - | - |
| 1777245600 | 26.11° C | 44% | 1008.8 hPa | 0 mm | - | - | - |
| 1777245000 | 25.56° C | 42% | 1008.8 hPa | 0 mm | - | - | - |
| 1777244400 | 26.11° C | 43% | 1008.8 hPa | 0 mm | - | - | - |
| 1777243801 | 25.56° C | 46% | 1008.9 hPa | 0 mm | - | - | - |
| 1777243200 | 26.11° C | 42% | 1008.9 hPa | 0 mm | - | - | - |
| 1777242600 | 25.56° C | 45% | 1009 hPa | 0 mm | - | - | - |
| 1777242000 | 25.56° C | 41% | 1008.9 hPa | 0 mm | - | - | - |
| 1777241400 | 26.11° C | 41% | 1009 hPa | 0 mm | - | - | - |
| 1777240800 | 27.22° C | 42% | 1008.9 hPa | 0 mm | - | - | - |
| 1777240200 | 27.22° C | 44% | 1008.8 hPa | 0 mm | - | - | - |
| 1777239600 | 27.78° C | 42% | 1008.8 hPa | 0 mm | - | - | - |
| 1777239000 | 27.78° C | 42% | 1008.8 hPa | 0 mm | - | - | - |
| 1777238400 | 27.22° C | 41% | 1008.6 hPa | 0 mm | - | - | - |
| 1777237800 | 27.78° C | 38% | 1008.3 hPa | 0 mm | - | - | - |
* Rain latest hour (hover to see other rain measurements)
** Current wind speed in m/s (hover to see current wind gust speed)